GW4471 Weather Reports


Display with metric or nautical units.
time (UTC)temp
F
wind
direction
speed
MPH
gust
MPH
rain 1hr
in
rain 24hr
in
rain mn
in
humidity
%
barometer
mb
20260502112817 61 275 3.0 6.0 0.00 0.00 0.00 64 1016.2
20260502111816 62 275 5.0 8.0 0.00 0.00 0.00 64 1016.2
20260502110816 61 297 3.0 5.0 0.00 0.00 0.00 64 1016.1
20260502105816 61 230 1.0 2.0 0.00 0.00 0.00 65 1016.1
20260502104816 61 275 5.0 8.0 0.00 0.00 0.00 66 1016.2
20260502103816 60 275 2.0 5.0 0.00 0.00 0.00 68 1016.2
20260502101816 58 230 2.0 3.0 0.00 0.00 0.00 70 1016.6
20260502100816 57 252 2.0 6.0 0.00 0.00 0.00 71 1016.6
20260502090817 58 140 3.0 5.0 0.00 0.00 0.00 70 1016.6
20260502070816 52 185 4.0 7.0 0.00 0.00 0.00 83 1016.6
20260502065816 51 162 2.0 5.0 0.00 0.00 0.00 83 1016.5
20260502064816 51 252 2.0 4.0 0.00 0.00 0.00 83 1016.5
20260502063815 51 252 4.0 7.0 0.00 0.00 0.00 84 1016.4
20260502062816 51 297 1.0 3.0 0.00 0.00 0.00 84 1016.4
20260502061816 51 252 3.0 6.0 0.00 0.00 0.00 84 1016.4
20260502060816 51 207 1.0 2.0 0.00 0.00 0.00 84 1016.5
20260502055815 51 0.0 1.0 0.00 0.00 0.00 84 1016.4
20260502054815 51 207 2.0 4.0 0.00 0.00 0.00 85 1016.4
20260502053816 51 252 2.0 6.0 0.00 0.00 0.00 85 1016.5
20260502051817 51 0.0 0.0 0.00 0.00 0.00 85 1016.5
20260502050817 51 252 1.0 2.0 0.00 0.00 0.00 85 1016.6
20260502044818 51 230 1.0 3.0 0.00 0.00 0.00 86 1016.7
20260502043818 51 0.0 1.0 0.00 0.00 0.00 86 1016.6
20260502042817 51 297 2.0 4.0 0.00 0.00 0.00 86 1016.7
20260502041818 51 252 1.0 3.0 0.00 0.00 0.00 86 1016.7
20260502040817 51 0.0 0.0 0.00 0.00 0.00 87 1016.7
20260502035817 51 297 3.0 4.0 0.00 0.00 0.00 87 1016.8
20260502033818 51 252 1.0 2.0 0.00 0.00 0.00 87 1016.9
20260502032818 50 0.0 0.0 0.00 0.00 0.00 87 1016.8
20260502031817 50 0.0 0.0 0.00 0.00 0.00 87 1016.9
20260502030818 50 0.0 0.0 0.00 0.00 0.00 86 1016.8
20260502024817 50 0.0 1.0 0.00 0.00 0.00 86 1016.9
20260502022818 50 275 1.0 4.0 0.00 0.00 0.00 85 1017.0
20260502021817 51 0.0 1.0 0.00 0.00 0.00 85 1017.1
20260502020818 51 297 1.0 3.0 0.00 0.00 0.00 85 1017.2
20260502015817 51 275 1.0 2.0 0.00 0.00 0.00 84 1017.2
20260502014817 51 297 2.0 5.0 0.00 0.00 0.00 84 1017.2
20260502013818 51 252 1.0 2.0 0.00 0.00 0.00 84 1017.3
20260502012817 51 95 1.0 2.0 0.00 0.00 0.00 84 1017.4
20260502011817 52 5 1.0 4.0 0.00 0.00 0.00 84 1017.6
20260502010817 52 230 2.0 7.0 0.00 0.00 0.00 85 1017.7
20260502004817 52 252 1.0 2.0 0.00 0.00 0.00 85 1017.8
20260502003818 52 275 2.0 3.0 0.00 0.00 0.00 85 1017.8
20260502002817 53 0.0 1.0 0.00 0.00 0.00 84 1017.9
20260502001817 53 297 2.0 2.0 0.00 0.00 0.00 85 1017.9
20260502000817 53 252 1.0 1.0 0.00 0.00 0.00 85 1018.0
20260501233817 54 252 4.0 7.0 0.00 0.00 0.00 85 1018.1
20260501230817 54 162 1.0 3.0 0.00 0.00 0.00 84 1018.0
20260501225817 54 162 1.0 2.0 0.00 0.00 0.00 84 1017.9
20260501224817 54 230 1.0 2.0 0.00 0.00 0.00 83 1017.8
20260501223817 54 0.0 2.0 0.00 0.00 0.00 83 1017.9
20260501222817 55 230 1.0 2.0 0.00 0.00 0.00 83 1018.0
20260501220818 55 230 1.0 3.0 0.00 0.00 0.00 83 1017.9
20260501215817 55 275 1.0 4.0 0.00 0.00 0.00 83 1017.9
20260501214817 55 207 3.0 7.0 0.00 0.00 0.00 82 1018.0
20260501213817 55 207 4.0 10.0 0.00 0.00 0.00 82 1018.0
20260501211816 55 275 4.0 5.0 0.00 0.00 0.00 80 1017.8
20260501210816 56 252 5.0 10.0 0.00 0.00 0.00 79 1017.8
20260501205817 56 297 3.0 7.0 0.00 0.00 0.00 78 1017.9
20260501203817 57 252 3.0 4.0 0.00 0.00 0.00 76 1017.6
20260501201817 57 252 3.0 8.0 0.00 0.00 0.00 74 1017.8
20260501195816 58 342 2.0 5.0 0.00 0.00 0.00 72 1017.9
20260501194816 58 207 2.0 4.0 0.00 0.00 0.00 71 1017.9
20260501192816 59 275 3.0 6.0 0.00 0.00 0.00 68 1017.8
20260501190817 60 297 2.0 4.0 0.00 0.00 0.00 67 1017.7
20260501185817 61 252 2.0 3.0 0.00 0.00 0.00 66 1017.7
20260501184816 62 252 3.0 5.0 0.00 0.00 0.00 65 1017.6
20260501183816 63 185 2.0 5.0 0.00 0.00 0.00 65 1017.4
20260501182816 63 252 2.0 6.0 0.00 0.00 0.00 63 1017.4
20260501181817 64 252 4.0 8.0 0.00 0.00 0.00 62 1017.4
20260501180816 65 320 2.0 6.0 0.00 0.00 0.00 60 1017.4
20260501175816 66 297 3.0 6.0 0.00 0.00 0.00 60 1017.0
20260501174816 67 230 2.0 4.0 0.00 0.00 0.00 59 1017.1
20260501173816 68 297 3.0 5.0 0.00 0.00 0.00 58 1017.2
20260501171817 69 252 3.0 6.0 0.00 0.00 0.00 58 1017.1
20260501170816 69 320 1.0 2.0 0.00 0.00 0.00 57 1017.2
20260501165817 70 320 3.0 5.0 0.00 0.00 0.00 56 1017.2
20260501164816 71 320 2.0 4.0 0.00 0.00 0.00 54 1017.3
20260501163817 71 297 4.0 6.0 0.00 0.00 0.00 53 1017.3
20260501161816 72 252 1.0 2.0 0.00 0.00 0.00 49 1017.2
20260501160817 73 207 3.0 5.0 0.00 0.00 0.00 49 1017.3
20260501155816 73 207 1.0 2.0 0.00 0.00 0.00 50 1017.2
20260501154816 73 185 2.0 3.0 0.00 0.00 0.00 48 1017.3
20260501152816 73 162 3.0 4.0 0.00 0.00 0.00 48 1017.6
20260501150816 74 0.0 1.0 0.00 0.00 0.00 46 1017.8
20260501145816 74 207 2.0 3.0 0.00 0.00 0.00 45 1018.0